timestamp,wind_dir_avg,wind_spd_avg,wind_spd_max_dir,wind_spd_gust,battery_voltage,lat,long
2023-04-24 00:04:01+00:00,25.0,10.32,26.0,12.01,12.33,47.59359,-54.27349
2023-04-24 00:14:01+00:00,27.0,9.27,31.0,10.32,12.33,47.59359,-54.27349
2023-04-24 00:24:01+00:00,28.0,9.22,30.0,11.18,12.33,47.59359,-54.27349
2023-04-24 00:34:01+00:00,32.0,10.49,34.0,11.57,12.33,47.59359,-54.27349
2023-04-24 00:44:01+00:00,36.0,10.26,37.0,11.4,12.33,47.59359,-54.27349
2023-04-24 00:54:01+00:00,37.0,9.96,37.0,10.81,12.33,47.59359,-54.27349
2023-04-24 01:04:01+00:00,38.0,9.65,35.0,10.65,12.33,47.59359,-54.27349
2023-04-24 01:14:00+00:00,37.0,9.4,38.0,10.31,12.33,47.59359,-54.27349
2023-04-24 01:24:00+00:00,39.0,9.06,38.0,10.09,12.33,47.59359,-54.27349
2023-04-24 01:34:00+00:00,44.0,8.76,44.0,10.0,12.33,47.59359,-54.27349
2023-04-24 01:44:00+00:00,40.0,9.06,36.0,9.85,12.33,47.59359,-54.27349
2023-04-24 01:54:00+00:00,38.0,9.1,37.0,10.19,12.33,47.59359,-54.27349
2023-04-24 02:04:00+00:00,32.0,8.31,34.0,8.81,12.33,47.59359,-54.27349
2023-04-24 02:14:00+00:00,31.0,6.79,31.0,7.23,12.25,47.59359,-54.27349
2023-04-24 02:24:00+00:00,22.0,10.03,22.0,11.35,12.25,47.59359,-54.27349
2023-04-24 02:34:00+00:00,25.0,10.11,31.0,11.07,12.25,47.59359,-54.27349
2023-04-24 02:44:00+00:00,23.0,10.12,23.0,11.52,12.25,47.59359,-54.27349
2023-04-24 02:54:00+00:00,19.0,9.36,18.0,10.32,12.25,47.59359,-54.27349
2023-04-24 03:04:00+00:00,23.0,10.13,23.0,11.37,12.25,47.59359,-54.27349
2023-04-24 03:14:00+00:00,21.0,9.72,29.0,11.36,12.25,47.59359,-54.27349
2023-04-24 03:24:00+00:00,30.0,9.9,29.0,10.95,12.25,47.59359,-54.27349
2023-04-24 03:34:00+00:00,28.0,10.74,25.0,11.86,12.25,47.59359,-54.27349
2023-04-24 03:44:00+00:00,29.0,10.13,31.0,11.34,12.25,47.59359,-54.27349
2023-04-24 03:54:00+00:00,31.0,10.14,33.0,11.39,12.25,47.59359,-54.27349
2023-04-24 04:04:00+00:00,35.0,10.45,34.0,11.62,12.25,47.59359,-54.27349
2023-04-24 04:14:00+00:00,40.0,8.76,34.0,9.76,12.25,47.59359,-54.27349
2023-04-24 04:24:00+00:00,36.0,11.11,41.0,12.44,12.25,47.59359,-54.27349
2023-04-24 04:34:00+00:00,36.0,10.44,37.0,11.65,12.25,47.59359,-54.27349
2023-04-24 04:44:00+00:00,34.0,13.71,34.0,16.23,12.25,47.59359,-54.27349
2023-04-24 04:54:00+00:00,31.0,12.08,32.0,13.67,12.25,47.59359,-54.27349
2023-04-24 05:04:00+00:00,27.0,11.27,31.0,12.99,12.25,47.59359,-54.27349
2023-04-24 05:14:00+00:00,28.0,12.45,24.0,14.84,12.25,47.59359,-54.27349
2023-04-24 05:24:00+00:00,29.0,12.6,27.0,15.42,12.25,47.59359,-54.27349
2023-04-24 05:34:00+00:00,25.0,10.23,22.0,11.21,12.25,47.59359,-54.27349
2023-04-24 05:44:00+00:00,26.0,10.31,23.0,12.0,12.25,47.59359,-54.27349
2023-04-24 05:54:00+00:00,29.0,10.44,30.0,11.82,12.25,47.59359,-54.27349
2023-04-24 06:04:00+00:00,28.0,9.01,29.0,10.06,12.25,47.59359,-54.27349
2023-04-24 06:14:01+00:00,31.0,8.56,34.0,9.66,12.17,47.59359,-54.27349
2023-04-24 06:24:01+00:00,32.0,9.34,32.0,10.5,12.17,47.59359,-54.27349
2023-04-24 06:34:01+00:00,33.0,9.02,31.0,10.43,12.17,47.59359,-54.27349
2023-04-24 06:44:01+00:00,35.0,9.44,34.0,11.12,12.17,47.59359,-54.27349
2023-04-24 06:54:01+00:00,33.0,9.72,34.0,10.75,12.17,47.59359,-54.27349
2023-04-24 07:04:01+00:00,35.0,10.78,37.0,12.16,12.17,47.59359,-54.27349
2023-04-24 07:14:00+00:00,33.0,10.07,35.0,11.14,12.17,47.59359,-54.27349
2023-04-24 07:24:00+00:00,28.0,9.5,31.0,10.76,12.17,47.59359,-54.27349
2023-04-24 07:34:00+00:00,26.0,8.13,21.0,8.87,12.17,47.59359,-54.27349
2023-04-24 07:44:00+00:00,27.0,8.27,33.0,9.29,12.17,47.59359,-54.27349
2023-04-24 07:54:00+00:00,30.0,9.68,27.0,11.05,12.17,47.59359,-54.27349
2023-04-24 08:04:00+00:00,29.0,11.6,26.0,13.9,12.17,47.59359,-54.27349
2023-04-24 08:14:00+00:00,26.0,10.85,32.0,12.42,12.17,47.59359,-54.27349
2023-04-24 08:24:00+00:00,23.0,11.23,21.0,12.73,12.17,47.59359,-54.27349
2023-04-24 08:34:00+00:00,20.0,10.82,21.0,12.11,12.17,47.59359,-54.27349
2023-04-24 08:44:00+00:00,22.0,9.98,24.0,11.65,12.17,47.59359,-54.27349
2023-04-24 08:54:00+00:00,20.0,10.47,18.0,11.97,12.17,47.59359,-54.27349
2023-04-24 09:04:00+00:00,18.0,10.49,19.0,12.88,12.17,47.59359,-54.27349
2023-04-24 09:14:01+00:00,25.0,9.87,26.0,10.92,12.09,47.59359,-54.27349
2023-04-24 09:24:01+00:00,24.0,8.64,22.0,10.14,12.09,47.59359,-54.27349
2023-04-24 09:34:01+00:00,28.0,10.23,32.0,12.33,12.09,47.59359,-54.27349
2023-04-24 09:44:01+00:00,31.0,9.38,32.0,10.63,12.09,47.59359,-54.27349
2023-04-24 09:54:01+00:00,31.0,9.5,33.0,10.39,12.09,47.59359,-54.27349
2023-04-24 10:04:01+00:00,31.0,9.7,31.0,10.83,12.09,47.59359,-54.27349
2023-04-24 10:14:00+00:00,29.0,8.69,28.0,9.9,12.17,47.59359,-54.27349
2023-04-24 10:24:00+00:00,31.0,9.12,31.0,10.55,12.17,47.59359,-54.27349
2023-04-24 10:34:00+00:00,33.0,9.35,33.0,10.33,12.17,47.59359,-54.27349
2023-04-24 10:44:00+00:00,29.0,8.77,29.0,9.62,12.17,47.59359,-54.27349
2023-04-24 10:54:00+00:00,28.0,8.68,27.0,9.98,12.17,47.59359,-54.27349
2023-04-24 11:04:00+00:00,29.0,8.56,30.0,9.17,12.17,47.59359,-54.27349
2023-04-24 11:14:00+00:00,34.0,8.25,33.0,9.19,12.33,47.59359,-54.27349
2023-04-24 11:24:00+00:00,38.0,8.35,40.0,9.24,12.33,47.59359,-54.27349
2023-04-24 11:34:00+00:00,36.0,8.65,36.0,9.45,12.33,47.59359,-54.27349
2023-04-24 11:44:00+00:00,32.0,9.17,33.0,9.8,12.33,47.59359,-54.27349
2023-04-24 11:54:00+00:00,33.0,10.59,31.0,11.71,12.33,47.59359,-54.27349
2023-04-24 12:04:00+00:00,36.0,9.55,33.0,10.96,12.33,47.59359,-54.27349
2023-04-24 12:14:00+00:00,38.0,9.32,36.0,10.01,13.05,47.59359,-54.27349
2023-04-24 12:24:00+00:00,36.0,9.48,40.0,10.15,13.05,47.59359,-54.27349
2023-04-24 12:34:00+00:00,40.0,10.9,34.0,12.34,13.05,47.59359,-54.27349
2023-04-24 12:44:00+00:00,39.0,10.08,36.0,10.99,13.05,47.59359,-54.27349
2023-04-24 12:54:00+00:00,38.0,10.98,42.0,12.42,13.05,47.59359,-54.27349
2023-04-24 13:04:00+00:00,39.0,11.1,38.0,12.5,13.05,47.59359,-54.27349
2023-04-24 13:14:00+00:00,37.0,10.97,36.0,12.14,13.68,47.59359,-54.27349
2023-04-24 13:24:00+00:00,40.0,11.43,38.0,13.07,13.68,47.59359,-54.27349
2023-04-24 13:34:00+00:00,38.0,10.71,37.0,12.02,13.68,47.59359,-54.27349
2023-04-24 13:44:00+00:00,37.0,10.94,36.0,12.43,13.68,47.59359,-54.27349
2023-04-24 13:54:00+00:00,41.0,10.45,43.0,11.3,13.68,47.59359,-54.27349
2023-04-24 14:04:00+00:00,39.0,11.02,37.0,12.4,13.68,47.59359,-54.27349
2023-04-24 14:14:00+00:00,41.0,10.36,42.0,11.3,13.53,47.59359,-54.27349
2023-04-24 14:24:00+00:00,38.0,10.82,33.0,12.42,13.53,47.59359,-54.27349
2023-04-24 14:34:00+00:00,37.0,10.87,37.0,12.45,13.53,47.59359,-54.27349
2023-04-24 14:44:00+00:00,40.0,10.72,36.0,12.51,13.53,47.59359,-54.27349
2023-04-24 14:54:00+00:00,38.0,10.85,33.0,13.35,13.53,47.59359,-54.27349
2023-04-24 15:04:00+00:00,40.0,10.82,36.0,12.46,13.53,47.59359,-54.27349
2023-04-24 15:14:00+00:00,36.0,11.31,36.0,12.55,13.6,47.59359,-54.27349
2023-04-24 15:24:00+00:00,38.0,11.19,32.0,12.79,13.6,47.59359,-54.27349
2023-04-24 15:34:00+00:00,39.0,11.33,38.0,13.02,13.6,47.59359,-54.27349
2023-04-24 15:44:00+00:00,38.0,10.67,35.0,12.31,13.6,47.59359,-54.27349
2023-04-24 15:54:00+00:00,40.0,10.86,38.0,11.84,13.6,47.59359,-54.27349
2023-04-24 16:04:00+00:00,37.0,10.14,37.0,11.46,13.6,47.59359,-54.27349
2023-04-24 16:14:01+00:00,35.0,10.29,36.0,11.7,13.53,47.59359,-54.27349
2023-04-24 16:24:01+00:00,38.0,10.27,37.0,11.57,13.53,47.59359,-54.27349
2023-04-24 16:34:01+00:00,34.0,10.44,35.0,11.6,13.53,47.59359,-54.27349
2023-04-24 16:44:01+00:00,33.0,10.11,37.0,11.23,13.53,47.59359,-54.27349
2023-04-24 16:54:01+00:00,33.0,9.71,37.0,11.01,13.53,47.59359,-54.27349
2023-04-24 17:04:01+00:00,33.0,9.28,34.0,10.4,13.53,47.59359,-54.27349
2023-04-24 17:14:00+00:00,33.0,9.23,36.0,10.17,13.68,47.59359,-54.27349
2023-04-24 17:24:00+00:00,31.0,9.24,35.0,10.26,13.68,47.59359,-54.27349
2023-04-24 17:34:00+00:00,33.0,9.91,34.0,11.21,13.68,47.59359,-54.27349
2023-04-24 17:44:00+00:00,32.0,10.19,31.0,11.26,13.68,47.59359,-54.27349
2023-04-24 17:54:00+00:00,31.0,9.86,32.0,11.05,13.68,47.59359,-54.27349
2023-04-24 18:04:00+00:00,31.0,10.67,32.0,11.87,13.68,47.59359,-54.27349
2023-04-24 18:14:00+00:00,31.0,10.49,32.0,11.84,13.6,47.59359,-54.27349
2023-04-24 18:24:00+00:00,32.0,10.14,28.0,11.32,13.6,47.59359,-54.27349
2023-04-24 18:34:00+00:00,34.0,9.48,32.0,10.5,13.6,47.59359,-54.27349
2023-04-24 18:44:00+00:00,33.0,10.26,35.0,11.74,13.6,47.59359,-54.27349
2023-04-24 18:54:00+00:00,35.0,12.06,35.0,13.3,13.6,47.59359,-54.27349
2023-04-24 19:04:00+00:00,37.0,11.91,37.0,13.42,13.6,47.59359,-54.27349
2023-04-24 19:14:00+00:00,41.0,12.55,41.0,14.14,13.68,47.59359,-54.27349
2023-04-24 19:24:00+00:00,36.0,11.16,36.0,12.9,13.68,47.59359,-54.27349
2023-04-24 19:34:00+00:00,36.0,10.86,37.0,12.19,13.68,47.59359,-54.27349
2023-04-24 19:44:00+00:00,36.0,10.99,35.0,12.37,13.68,47.59359,-54.27349
2023-04-24 19:54:00+00:00,32.0,11.42,34.0,12.67,13.68,47.59359,-54.27349
2023-04-24 20:04:00+00:00,36.0,10.88,37.0,11.92,13.68,47.59359,-54.27349
2023-04-24 20:14:01+00:00,34.0,10.18,33.0,11.22,13.68,47.59359,-54.27349
2023-04-24 20:24:01+00:00,36.0,10.29,34.0,11.97,13.68,47.59359,-54.27349
2023-04-24 20:34:01+00:00,38.0,11.45,36.0,12.87,13.68,47.59359,-54.27349
2023-04-24 20:44:01+00:00,40.0,11.42,38.0,12.55,13.68,47.59359,-54.27349
2023-04-24 20:54:01+00:00,41.0,11.93,41.0,13.99,13.68,47.59359,-54.27349
2023-04-24 21:04:01+00:00,42.0,12.14,41.0,13.19,13.68,47.59359,-54.27349
2023-04-24 21:14:01+00:00,37.0,11.63,36.0,12.81,13.53,47.59359,-54.27349
2023-04-24 21:24:01+00:00,36.0,11.51,38.0,13.0,13.53,47.59359,-54.27349
2023-04-24 21:34:01+00:00,34.0,9.99,33.0,11.21,13.53,47.59359,-54.27349
2023-04-24 21:44:01+00:00,35.0,10.97,38.0,12.93,13.53,47.59359,-54.27349
2023-04-24 21:54:01+00:00,34.0,10.73,37.0,12.14,13.53,47.59359,-54.27349
2023-04-24 22:04:01+00:00,35.0,11.14,34.0,12.53,13.53,47.59359,-54.27349
2023-04-24 22:14:00+00:00,35.0,10.87,35.0,12.07,13.05,47.59359,-54.27349
2023-04-24 22:24:00+00:00,35.0,9.51,35.0,10.35,13.05,47.59359,-54.27349
2023-04-24 22:34:00+00:00,32.0,10.21,33.0,11.59,13.05,47.59359,-54.27349
2023-04-24 22:44:00+00:00,31.0,9.91,29.0,11.29,13.05,47.59359,-54.27349
2023-04-24 22:54:00+00:00,32.0,10.8,33.0,12.4,13.05,47.59359,-54.27349
2023-04-24 23:04:00+00:00,34.0,10.45,30.0,11.86,13.05,47.59359,-54.27349
2023-04-24 23:14:00+00:00,32.0,10.94,33.0,12.24,12.49,47.59359,-54.27349
2023-04-24 23:24:00+00:00,32.0,11.52,33.0,13.03,12.49,47.59359,-54.27349
2023-04-24 23:34:00+00:00,32.0,11.19,33.0,12.68,12.49,47.59359,-54.27349
2023-04-24 23:44:00+00:00,32.0,11.38,34.0,12.79,12.49,47.59359,-54.27349
2023-04-24 23:54:00+00:00,33.0,12.24,35.0,13.83,12.49,47.59359,-54.27349
